When you browse on this site, cookies collect data to enhance your experience and personalize the content and advertising you see.
Visit our Privacy Policy to learn more. By continuing to use the site, you agree to this use of cookies and data.
  • In Lithuania
  • List of Countries
  • For 7 days
  • Water Temperature
  • Weather Map
  • Weather Widgets
  • user-avatar
    Login

    Hourly Weather Dolny Kubin

    Today, 8 April, Wednesday

    Time Temperature Precipitation Wind Pressure Humidity
    00:00 +4°C° 0 mm 0 mps 713 mmHg 54%
    01:00 +4°C° 0 mm 0 mps 713 mmHg 55%
    02:00 +4°C° 0 mm 0 mps 713 mmHg 55%
    03:00 +3°C° 0 mm 0 mps 712 mmHg 56%
    04:00 +3°C° 0 mm 0 mps 712 mmHg 56%
    05:00 +5°C° 0 mm 0 mps 712 mmHg 54%
    06:00 +6°C° 0 mm 0 mps 713 mmHg 52%
    07:00 +8°C° 0 mm 0 mps 713 mmHg 51%
    08:00 +10°C° 0 mm 0 mps 713 mmHg 46%
    09:00 +13°C° 0 mm 0 mps 713 mmHg 41%
    10:00 +16°C° 0 mm 0 mps 714 mmHg 36%
    11:00 +16°C° 0 mm 0 mps 713 mmHg 34%
    12:00 +19°C° 0 mm 1 mps 713 mmHg 33%
    13:00 +20°C° 0 mm 1 mps 713 mmHg 31%
    14:00 +19°C° 0 mm 1 mps 712 mmHg 32%
    15:00 +19°C° 0 mm 1 mps 712 mmHg 34%
    16:00 +18°C° 0 mm 1 mps 711 mmHg 35%
    17:00 +15°C° 0 mm 1 mps 711 mmHg 43%
    18:00 +13°C° 0 mm 1 mps 710 mmHg 52%
    19:00 +10°C° 0 mm 1 mps 709 mmHg 61%
    20:00 +9°C° 0 mm 1 mps 709 mmHg 63%
    21:00 +9°C° 0 mm 1 mps 709 mmHg 65%
    22:00 +8°C° 0 mm 1 mps 709 mmHg 67%
    23:00 +8°C° 0 mm 1 mps 709 mmHg 68%

    Tomorrow, 9 April, Thursday

    Time Temperature Precipitation Wind Pressure Humidity
    00:00 +7°C° 0 mm 1 mps 708 mmHg 69%
    01:00 +7°C° 0 mm 1 mps 708 mmHg 70%
    02:00 +6°C° 0 mm 1 mps 708 mmHg 70%
    03:00 +6°C° 0 mm 1 mps 707 mmHg 70%
    04:00 +6°C° 0 mm 1 mps 707 mmHg 70%
    05:00 +7°C° 0 mm 1 mps 707 mmHg 67%
    06:00 +8°C° 0 mm 1 mps 707 mmHg 63%
    07:00 +9°C° 0 mm 1 mps 708 mmHg 59%
    08:00 +11°C° 0 mm 1 mps 708 mmHg 51%
    09:00 +13°C° 0 mm 1 mps 708 mmHg 44%
    10:00 +15°C° 0 mm 2 mps 708 mmHg 37%
    11:00 +16°C° 0 mm 2 mps 708 mmHg 36%
    12:00 +16°C° 0 mm 2 mps 707 mmHg 35%
    13:00 +17°C° 0 mm 3 mps 707 mmHg 34%
    14:00 +17°C° 0 mm 3 mps 707 mmHg 37%
    15:00 +16°C° 0 mm 3 mps 706 mmHg 40%
    16:00 +16°C° 0 mm 3 mps 706 mmHg 42%
    17:00 +14°C° 0 mm 2 mps 706 mmHg 50%
    18:00 +12°C° 0 mm 2 mps 706 mmHg 58%
    19:00 +10°C° 0 mm 1 mps 705 mmHg 66%
    20:00 +9°C° 0 mm 1 mps 706 mmHg 72%
    21:00 +9°C° 0 mm 1 mps 706 mmHg 78%
    22:00 +8°C° 0 mm 1 mps 706 mmHg 84%
    23:00 +8°C° 0 mm 1 mps 706 mmHg 87%

    Day after tomorrow, 10 April, Friday

    Time Temperature Precipitation Wind Pressure Humidity
    00:00 +8°C° 0 mm 1 mps 706 mmHg 91%
    01:00 +8°C° 0 mm 1 mps 706 mmHg 94%
    02:00 +7°C° 0.1 mm 1 mps 707 mmHg 95%
    03:00 +7°C° 0.1 mm 1 mps 707 mmHg 95%
    04:00 +6°C° 0.1 mm 1 mps 707 mmHg 96%
    05:00 +7°C° 0.1 mm 1 mps 707 mmHg 91%
    06:00 +6°C° 0.1 mm 2 mps 708 mmHg 87%
    07:00 +7°C° 0.1 mm 2 mps 708 mmHg 82%
    08:00 +8°C° 0 mm 2 mps 709 mmHg 71%
    09:00 +8°C° 0 mm 2 mps 709 mmHg 61%
    10:00 +9°C° 0 mm 2 mps 709 mmHg 50%
    11:00 +10°C° 0 mm 2 mps 709 mmHg 45%
    12:00 +12°C° 0 mm 2 mps 709 mmHg 40%
    13:00 +13°C° 0 mm 2 mps 709 mmHg 34%
    14:00 +13°C° 0 mm 2 mps 709 mmHg 35%
    15:00 +12°C° 0 mm 2 mps 708 mmHg 36%
    16:00 +12°C° 0 mm 2 mps 708 mmHg 38%
    17:00 +9°C° 0 mm 2 mps 707 mmHg 45%
    18:00 +8°C° 0 mm 1 mps 707 mmHg 52%
    19:00 +6°C° 0 mm 1 mps 707 mmHg 59%
    20:00 +6°C° 0 mm 1 mps 707 mmHg 61%
    21:00 +5°C° 0 mm 1 mps 707 mmHg 62%
    22:00 +3°C° 0 mm 0 mps 708 mmHg 63%
    23:00 +3°C° 0 mm 0 mps 707 mmHg 65%

    11 April, Saturday

    Time Temperature Precipitation Wind Pressure Humidity
    00:00 +3°C° 0 mm 0 mps 707 mmHg 66%
    01:00 +2°C° 0 mm 0 mps 707 mmHg 68%
    02:00 +2°C° 0 mm 0 mps 707 mmHg 69%
    03:00 +2°C° 0 mm 0 mps 708 mmHg 70%
    04:00 +1°C° 0 mm 0 mps 708 mmHg 72%
    05:00 +3°C° 0 mm 0 mps 708 mmHg 67%
    06:00 +4°C° 0 mm 0 mps 708 mmHg 63%
    07:00 +6°C° 0 mm 0 mps 709 mmHg 58%
    08:00 +8°C° 0 mm 0 mps 709 mmHg 52%
    09:00 +10°C° 0 mm 0 mps 710 mmHg 47%
    10:00 +12°C° 0 mm 0 mps 710 mmHg 41%
    11:00 +14°C° 0 mm 1 mps 710 mmHg 39%
    12:00 +14°C° 0 mm 1 mps 710 mmHg 37%
    13:00 +15°C° 0 mm 1 mps 710 mmHg 35%
    14:00 +15°C° 0 mm 1 mps 709 mmHg 36%
    15:00 +14°C° 0 mm 1 mps 709 mmHg 36%
    16:00 +14°C° 0 mm 1 mps 708 mmHg 37%
    17:00 +12°C° 0 mm 1 mps 708 mmHg 46%
    18:00 +10°C° 0 mm 1 mps 708 mmHg 55%
    19:00 +8°C° 0 mm 1 mps 707 mmHg 65%
    20:00 +7°C° 0 mm 1 mps 707 mmHg 68%
    21:00 +6°C° 0 mm 1 mps 707 mmHg 72%
    22:00 +4°C° 0 mm 0 mps 707 mmHg 75%
    23:00 +5°C° 0 mm 1 mps 707 mmHg 77%

    12 April, Sunday

    Time Temperature Precipitation Wind Pressure Humidity
    00:00 +5°C° 0 mm 1 mps 707 mmHg 78%
    01:00 +5°C° 0 mm 1 mps 707 mmHg 79%
    02:00 +4°C° 0 mm 1 mps 706 mmHg 80%
    03:00 +4°C° 0 mm 1 mps 706 mmHg 80%
    04:00 +4°C° 0 mm 1 mps 706 mmHg 81%
    05:00 +5°C° 0 mm 1 mps 706 mmHg 76%
    06:00 +7°C° 0 mm 1 mps 706 mmHg 70%
    07:00 +8°C° 0 mm 1 mps 706 mmHg 65%
    08:00 +10°C° 0 mm 1 mps 706 mmHg 58%
    09:00 +12°C° 0 mm 2 mps 706 mmHg 51%
    10:00 +14°C° 0 mm 2 mps 706 mmHg 44%
    11:00 +15°C° 0 mm 2 mps 706 mmHg 43%
    12:00 +16°C° 0 mm 2 mps 706 mmHg 42%
    13:00 +16°C° 0 mm 3 mps 705 mmHg 41%
    14:00 +16°C° 0 mm 3 mps 705 mmHg 44%
    15:00 +16°C° 0 mm 3 mps 704 mmHg 47%
    16:00 +14°C° 0 mm 3 mps 703 mmHg 50%
    17:00 +13°C° 0 mm 2 mps 703 mmHg 59%
    18:00 +10°C° 0 mm 2 mps 702 mmHg 67%
    19:00 +9°C° 0 mm 2 mps 702 mmHg 76%
    20:00 +8°C° 0 mm 2 mps 702 mmHg 77%
    21:00 +7°C° 0 mm 2 mps 701 mmHg 78%
    22:00 +7°C° 0 mm 2 mps 701 mmHg 80%
    23:00 +7°C° 0 mm 2 mps 701 mmHg 80%

    13 April, Monday

    Time Temperature Precipitation Wind Pressure Humidity
    00:00 +6°C° 0 mm 2 mps 701 mmHg 80%
    01:00 +6°C° 0 mm 2 mps 700 mmHg 80%
    02:00 +6°C° 0 mm 2 mps 700 mmHg 78%
    03:00 +6°C° 0 mm 2 mps 700 mmHg 76%
    04:00 +6°C° 0 mm 2 mps 700 mmHg 75%
    05:00 +7°C° 0 mm 2 mps 700 mmHg 73%
    06:00 +8°C° 0 mm 2 mps 700 mmHg 71%
    07:00 +9°C° 0 mm 2 mps 700 mmHg 69%
    08:00 +10°C° 0 mm 2 mps 699 mmHg 64%
    09:00 +12°C° 0 mm 3 mps 699 mmHg 60%
    10:00 +14°C° 0 mm 3 mps 699 mmHg 55%
    11:00 +14°C° 0 mm 4 mps 699 mmHg 54%
    12:00 +15°C° 0 mm 4 mps 699 mmHg 54%
    13:00 +15°C° 0 mm 4 mps 698 mmHg 53%
    14:00 +15°C° 0 mm 4 mps 697 mmHg 57%
    15:00 +14°C° 0 mm 4 mps 697 mmHg 61%
    16:00 +14°C° 0 mm 3 mps 696 mmHg 64%
    17:00 +13°C° 0.2 mm 3 mps 695 mmHg 71%
    18:00 +12°C° 0.2 mm 2 mps 695 mmHg 78%
    19:00 +10°C° 0.2 mm 2 mps 694 mmHg 84%
    20:00 +10°C° 0.7 mm 2 mps 694 mmHg 87%
    21:00 +10°C° 0.7 mm 2 mps 694 mmHg 90%
    22:00 +9°C° 0.7 mm 2 mps 694 mmHg 93%
    23:00 +9°C° 1.3 mm 2 mps 694 mmHg 94%
    Show more